User: anonymous   Login
Location: Unspecified
(0.0000°N, 0.0000°E)
Time: 11:04:57
(UTC+00:00)
Language:

OBJECT PH - Orbit

View from above orbital plane
View from above orbital plane
View from above satellite
View from above satellite

Ground track
Ground track

The orbit data is extracted from the following two-line orbital elements,

1 43596U 98067PH  19107.92708630 +.00013492 +00000-0 +17350-3 0  9998
2 43596 051.6372 295.0719 0004189 231.2863 128.7756 15.59402353038197
Epoch (UTC): 17 April 2019 22:15:00
Eccentricity: 0.0004189
inclination: 51.6372°
perigee height: 386 km
apogee height: 392 km
right ascension of ascending node: 295.0719°
argument of perigee: 231.2863°
revolutions per day: 15.59402353
mean anomaly at epoch: 128.7756°
orbit number at epoch: 3819

The dashed part of the orbit path shows where the satellite is in the earth's shadow,  

DLR